DW5321 Paradera AW current weather conditions

sailwx.info

Wind from 077 at 6 knots gusting 12

Air temperature 31.7° C
Dewpoint 25.5° C

Last reported at 2014-Sep-18 17:20 UTC.
Time now 2014-Sep-19 23:59 UTC

Location: N 12°33' W 070°00'.
View on Google Maps.

See reports from other nearby stations

  
Tides and Currents Weather Stations Pressure Air Temp Water Temp Dewpoint Dewpoint Depression Visibility Wind Speed Wind Dir Waves Ship Positions
date/time (UTC)wind fromknots sea level pressurealtimeterstation pressurevisibilityair tempwater tempwave heightnotes
2014-Sep-18 17:20 077 6 gusting 12 31.7
2014-Sep-18 17:05 126 7 gusting 15 31.1
2014-Sep-18 16:49 108 6 gusting 10 31.1
2014-Sep-18 16:34 107 7 gusting 11 30.6
2014-Sep-18 16:19 008 4 gusting 10 30.6
2014-Sep-18 16:04 108 7 gusting 12 31.1
2014-Sep-18 15:49 117 6 gusting 13 31.1
2014-Sep-18 15:34 132 8 gusting 13 31.1
2014-Sep-18 15:19 083 9 gusting 13 30.6
2014-Sep-18 15:04 079 8 gusting 13 30.6
2014-Sep-18 14:49 108 9 gusting 16 30.6
2014-Sep-18 14:34 117 10 gusting 15 30.6
2014-Sep-18 14:19 146 8 gusting 14 30.6
2014-Sep-18 14:04 105 12 gusting 16 30.0
2014-Sep-18 13:49 079 7 gusting 15 30.0
2014-Sep-18 13:34 098 5 gusting 13 30.0
2014-Sep-18 13:19 099 9 gusting 15 29.4
2014-Sep-18 13:04 113 6 gusting 12 29.4
2014-Sep-18 12:49 114 8 gusting 13 28.9
2014-Sep-18 12:34 108 6 gusting 15 28.9
2014-Sep-18 12:19 117 4 gusting 10 28.9
2014-Sep-18 12:04 075 5 gusting 10 28.9
2014-Sep-18 11:49 120 5 gusting 13 28.3
2014-Sep-18 11:34 079 4 gusting 6 27.8
2014-Sep-18 11:19 070 3 gusting 6 27.2
2014-Sep-18 11:04 060 4 gusting 7 27.2
2014-Sep-18 10:49 108 4 gusting 6 27.2
2014-Sep-18 10:34 090 4 gusting 7 27.2
2014-Sep-18 10:19 101 4 gusting 9 27.2
2014-Sep-18 10:04 108 5 gusting 10 27.2
2014-Sep-18 09:49 086 4 gusting 7 27.2
2014-Sep-18 09:34 096 4 gusting 6 27.2
2014-Sep-18 09:19 098 3 gusting 7 27.2
2014-Sep-18 09:04 077 5 gusting 12 27.2
2014-Sep-18 08:49 068 3 gusting 8 27.2
2014-Sep-18 08:34 079 5 gusting 10 27.2
2014-Sep-18 08:19 080 4 gusting 8 27.2
2014-Sep-18 08:04 085 5 gusting 7 27.2
2014-Sep-18 07:49 060 5 gusting 8 27.2
2014-Sep-18 07:34 089 6 gusting 9 27.2
2014-Sep-18 07:19 085 3 gusting 6 27.2
2014-Sep-18 07:03 108 3 gusting 8 27.2
2014-Sep-18 06:48 084 5 gusting 7 27.2
2014-Sep-18 06:33 084 3 gusting 6 27.2
2014-Sep-18 06:18 070 3 gusting 9 27.2
2014-Sep-18 06:03 105 5 gusting 10 27.2
2014-Sep-18 05:48 105 4 gusting 8 27.2
2014-Sep-18 05:33 101 5 gusting 11 27.8
2014-Sep-18 05:18 090 6 gusting 11 27.8
2014-Sep-18 05:03 105 6 gusting 10 27.8
2014-Sep-18 04:48 101 3 gusting 9 27.8
2014-Sep-18 04:33 117 3 gusting 8 27.8
2014-Sep-18 04:18 101 5 gusting 8 27.8
2014-Sep-18 04:03 084 6 gusting 9 27.8
2014-Sep-18 03:47 068 5 gusting 10 27.8
2014-Sep-18 03:32 079 4 gusting 8 27.8
2014-Sep-18 03:17 074 4 gusting 11 27.8
2014-Sep-18 03:02 124 3 gusting 9 27.8
2014-Sep-18 02:47 075 3 gusting 8 27.8
2014-Sep-18 02:32 115 3 gusting 9 27.8
2014-Sep-18 02:17 078 5 gusting 7 27.8
2014-Sep-18 02:02 084 4 gusting 9 27.8
2014-Sep-18 01:47 114 4 gusting 8 27.8
2014-Sep-18 01:32 096 5 gusting 10 27.8
2014-Sep-18 01:17 084 5 gusting 9 27.8
2014-Sep-18 01:02 071 5 gusting 10 27.8
2014-Sep-18 00:47 084 5 gusting 13 27.8
2014-Sep-18 00:32 070 6 gusting 11 27.8
2014-Sep-18 00:17 082 6 gusting 13 27.8
2014-Sep-18 00:02 079 5 gusting 13 28.3
2014-Sep-17 23:47 069 6 gusting 13 28.3
2014-Sep-17 23:32 111 6 gusting 12 28.3
2014-Sep-17 23:17 060 7 gusting 12 28.3
2014-Sep-17 23:02 056 6 gusting 13 28.3